Total_Precipitation_Accumulation
1.52 1.96 2.43 2.94 3.59 4.45 5.39 5.75 5.44 4.86 4.38 3.89 3.34 2.87 2.56 2.33 2.20 1.93 1.60 1.47 1.45 1.44 1.51 1.25 1.33 1.40 1.41 1.40 1.44 1.51 1.44 1.24 1.40 1.61 1.41 1.14 1.00 0.97 0.87 0.83 0.87 0.80 0.86
1.58 2.07 2.63 3.05 3.40 3.92 4.68 4.95 4.55 3.88 3.29 2.94 2.74 2.50 2.35 2.03 1.80 1.68 1.54 1.32 1.30 1.31 1.31 1.27 1.07 1.10 1.20 1.11 1.14 1.35 1.36 1.15 1.25 1.48 1.53 1.27 1.23 1.05 0.65 0.70 0.75 0.76 0.88
1.43 2.15 2.65 2.91 3.19 3.40 3.41 3.50 3.35 2.82 2.45 2.32 2.26 2.19 2.20 1.96 1.67 1.51 1.33 1.16 1.11 1.08 1.09 1.06 1.02 1.08 1.06 1.10 1.12 1.16 1.26 1.18 1.07 1.16 1.45 1.31 1.14 0.97 0.76 0.68 0.67 0.80 0.99
1.27 2.02 2.27 2.33 2.42 2.53 2.35 2.35 2.39 2.19 2.09 1.99 1.95 1.79 1.60 1.49 1.37 1.34 1.26 1.17 1.10 1.03 0.96 0.95 0.91 0.97 0.99 1.14 0.99 1.02 1.11 1.13 0.96 0.97 1.05 1.05 1.07 1.06 0.92 0.79 0.75 0.79 0.94
0.96 1.31 1.35 1.46 1.55 1.65 1.70 1.85 2.06 2.05 1.93 1.86 1.92 1.89 1.60 1.42 1.33 1.30 1.32 1.21 1.09 1.02 0.94 0.94 0.97 0.96 0.93 0.95 0.98 1.07 1.04 1.00 0.94 0.92 0.98 1.06 1.06 1.00 0.98 0.97 0.87 0.79 0.71
0.66 0.86 0.91 0.94 1.00 1.07 1.21 1.40 1.75 1.87 1.77 1.70 1.72 1.68 1.58 1.52 1.38 1.22 1.17 1.16 1.10 1.06 1.06 1.01 1.04 0.97 0.92 0.93 0.93 0.97 0.96 1.01 1.05 0.99 0.98 1.12 1.16 1.06 1.03 0.97 0.87 0.81 0.69
0.58 0.69 0.82 0.83 0.77 0.76 0.88 1.06 1.28 1.38 1.41 1.47 1.56 1.60 1.62 1.56 1.38 1.26 1.15 1.14 1.03 1.00 1.10 1.09 1.05 1.03 1.02 0.97 0.96 0.94 0.91 0.99 1.11 1.04 0.95 0.96 0.99 1.05 1.07 1.03 0.91 0.90 0.83
0.44 0.47 0.54 0.53 0.52 0.60 0.69 0.84 0.96 1.03 1.10 1.19 1.31 1.42 1.42 1.39 1.31 1.32 1.24 1.15 1.04 1.00 1.07 1.06 0.98 0.94 0.94 0.92 1.03 0.94 0.91 1.01 1.10 1.07 1.20 1.12 0.98 1.11 1.15 1.13 1.17 1.12 1.11
0.30 0.28 0.28 0.29 0.35 0.49 0.61 0.68 0.76 0.83 0.92 1.00 1.14 1.24 1.27 1.25 1.28 1.28 1.18 1.12 1.13 1.05 1.07 0.98 0.97 0.95 0.91 0.92 1.01 0.96 1.00 1.07 1.05 1.11 1.29 1.30 1.18 1.14 1.16 1.24 1.38 1.52 1.41
0.23 0.22 0.20 0.19 0.20 0.25 0.39 0.52 0.60 0.73 0.88 0.94 0.94 0.97 1.12 1.11 1.14 1.12 1.05 1.10 1.11 1.07 1.12 1.11 1.01 1.00 0.99 1.03 1.12 1.09 1.07 1.19 1.25 1.38 1.48 1.46 1.38 1.36 1.29 1.32 1.40 1.50 1.56
0.26 0.20 0.17 0.16 0.16 0.18 0.27 0.37 0.46 0.59 0.69 0.73 0.76 0.88 0.97 0.98 0.96 0.97 0.93 0.97 0.98 0.99 1.01 1.04 1.05 1.05 1.10 1.27 1.49 1.45 1.39 1.42 1.47 1.54 1.64 1.67 1.72 1.70 1.53 1.47 1.43 1.45 1.55
0.35 0.26 0.22 0.19 0.22 0.22 0.21 0.29 0.32 0.36 0.42 0.50 0.58 0.71 0.85 0.85 0.84 0.87 0.97 1.00 0.96 0.90 0.82 0.87 0.94 0.94 1.04 1.24 1.52 1.64 1.64 1.63 1.56 1.65 1.85 1.86 1.81 1.70 1.57 1.58 1.51 1.48 1.58
0.32 0.41 0.38 0.25 0.26 0.22 0.20 0.23 0.24 0.29 0.34 0.40 0.47 0.57 0.72 0.83 0.87 0.91 0.96 1.01 0.99 0.94 0.92 0.94 0.96 1.04 1.09 1.12 1.30 1.48 1.56 1.60 1.59 1.71 1.77 1.77 1.83 1.75 1.66 1.58 1.53 1.51 1.63
0.29 0.45 0.50 0.28 0.23 0.22 0.22 0.24 0.26 0.30 0.33 0.38 0.48 0.57 0.65 0.79 0.91 0.96 0.99 1.02 1.04 1.01 1.03 1.07 1.11 1.16 1.17 1.17 1.26 1.41 1.51 1.56 1.61 1.70 1.77 1.79 1.79 1.84 1.92 1.80 1.75 1.80 1.86
0.30 0.29 0.34 0.26 0.24 0.25 0.25 0.26 0.29 0.34 0.36 0.42 0.50 0.56 0.65 0.71 0.79 0.94 1.01 1.10 1.12 1.08 1.14 1.24 1.26 1.24 1.18 1.13 1.33 1.46 1.47 1.58 1.66 1.68 1.65 1.71 1.89 1.97 1.98 1.82 1.82 1.92 1.91
0.34 0.35 0.39 0.37 0.35 0.36 0.34 0.29 0.35 0.43 0.50 0.59 0.62 0.65 0.71 0.79 0.83 0.90 0.94 1.06 1.13 1.21 1.31 1.36 1.38 1.32 1.15 1.32 1.46 1.48 1.50 1.58 1.63 1.64 1.57 1.50 1.55 1.65 1.72 1.67 1.61 1.65 1.71
0.51 0.59 0.66 0.58 0.50 0.45 0.41 0.42 0.49 0.56 0.63 0.72 0.83 0.88 0.92 1.00 1.04 1.07 1.06 1.11 1.24 1.34 1.36 1.36 1.37 1.36 1.41 1.45 1.33 1.29 1.21 1.27 1.34 1.34 1.32 1.16 1.09 1.30 1.37 1.51 1.50 1.40 1.37
0.55 0.64 0.70 0.71 0.66 0.63 0.59 0.62 0.68 0.77 0.90 0.99 1.10 1.21 1.28 1.35 1.41 1.47 1.43 1.43 1.48 1.57 1.56 1.48 1.48 1.55 1.55 1.51 1.32 1.24 1.12 1.13 1.15 1.14 1.11 1.10 1.09 1.13 1.22 1.29 1.30 1.26 1.21
0.62 0.74 0.73 0.73 0.73 0.84 0.84 0.82 0.86 0.95 1.13 1.30 1.40 1.51 1.57 1.61 1.63 1.62 1.68 1.74 1.83 1.85 1.85 1.80 1.83 1.83 1.88 1.82 1.55 1.43 1.26 1.21 1.16 1.18 1.21 1.21 1.11 1.16 1.12 1.11 1.14 1.15 1.19
0.69 0.78 0.83 0.82 0.87 1.02 1.05 1.06 1.15 1.24 1.30 1.36 1.45 1.63 1.76 1.84 1.82 1.83 1.93 2.07 2.19 2.16 2.15 2.17 2.17 2.09 2.05 2.01 1.66 1.46 1.27 1.29 1.27 1.30 1.25 1.19 1.06 1.01 0.96 0.96 1.04 1.02 1.03
0.68 0.78 0.82 0.86 0.90 1.03 1.15 1.31 1.46 1.52 1.54 1.58 1.63 1.71 1.81 1.93 1.94 1.99 2.03 2.14 2.25 2.24 2.19 2.12 2.04 1.98 1.99 1.96 1.68 1.49 1.31 1.35 1.38 1.30 1.25 1.20 1.10 0.94 0.89 0.84 0.87 0.90 0.95
0.59 0.67 0.81 0.89 0.95 1.08 1.30 1.48 1.61 1.73 1.82 1.83 1.90 1.89 1.93 1.90 1.84 1.96 2.07 2.16 2.26 2.21 2.16 2.16 2.04 1.94 1.91 1.78 1.59 1.43 1.36 1.45 1.51 1.46 1.37 1.30 1.16 0.94 0.87 0.78 0.80 0.83 0.82
0.62 0.66 0.76 0.88 0.95 1.04 1.23 1.54 1.58 1.61 1.65 1.73 1.77 1.84 1.87 1.89 1.89 1.97 2.06 2.18 2.20 2.15 2.07 2.08 2.08 2.01 1.91 1.85 1.66 1.43 1.32 1.34 1.37 1.48 1.55 1.40 1.23 1.05 0.92 0.91 0.88 0.82 0.77
0.61 0.64 0.72 0.83 0.89 0.86 0.94 1.09 1.21 1.29 1.34 1.39 1.45 1.48 1.58 1.67 1.82 2.00 2.03 2.10 2.17 2.19 2.16 2.12 2.07 2.03 1.98 1.97 1.80 1.58 1.40 1.38 1.43 1.50 1.55 1.43 1.30 1.13 0.99 0.96 0.86 0.77 0.75
0.52 0.57 0.67 0.69 0.72 0.78 0.76 0.79 0.86 1.05 1.16 1.19 1.24 1.34 1.47 1.58 1.75 1.95 2.05 1.98 1.99 2.11 2.05 1.94 1.84 1.77 1.72 1.80 1.71 1.52 1.44 1.43 1.51 1.57 1.64 1.58 1.46 1.35 1.21 1.11 1.05 0.99 0.95
0.52 0.57 0.62 0.62 0.61 0.67 0.69 0.69 0.80 0.99 1.12 1.13 1.15 1.20 1.25 1.36 1.48 1.61 1.70 1.63 1.44 1.47 1.41 1.28 1.16 1.12 1.15 1.23 1.20 1.13 1.08 1.13 1.26 1.37 1.53 1.52 1.42 1.34 1.30 1.26 1.20 1.14 1.07